Tracking 27097 objects as of 29-Mar-2023
HD Live streaming from Space Station
objects crossing your sky now

STARLINK-3354

Track STARLINK-3354 now!
10-day predictions
STARLINK-3354 is classified as:


NORAD ID: 51146
Int'l Code: 2022-005AU
Perigee: 545.8 km
Apogee: 547.9 km
Inclination: 53.2 °
Period: 95.4 minutes
Semi major axis: 6917 km
RCS: Unknown
Launch date: January 19, 2022
Source: United States (US)
Launch site: AIR FORCE EASTERN TEST RANGE (AFETR)
Your satellite tracking list
Your tracking list is empty




NASA's NSSDC Master Catalog

Two Line Element Set (TLE):
1 51146U 22005AU  23087.71552237 -.00001433  00000-0 -71924-4 0  9998
2 51146  53.2163  93.8428 0001511  99.6315 260.4848 15.08844350 66141
Source of the keplerian elements: AFSPC